Tracy, MN

1:58 AM CDT on June 28, 2017 (GMT -0500)
Tracy

Weather History for KTKC - March, 2013

Change the Weather History Date:

Sunday, March 10, 2013

  Actual Average (KMML) Record (KMML)
Temperature  
Mean Temperature 22 °F -  
Max Temperature 27 °F 38 °F 68 °F (2012)
Min Temperature 18 °F 18 °F -7 °F (1979)
Degree Days  
Heating Degree Days 42    
Moisture  
Dew Point 20 °F    
Average Humidity 91    
Maximum Humidity 93    
Minimum Humidity 88    
Precipitation  
Precipitation 0.00 in - - ()
Sea Level Pressure  
Sea Level Pressure 29.95 in    
Wind  
Wind Speed 23 mph (NNW)    
Max Wind Speed 29 mph    
Max Gust Speed 36 mph    
Visibility 8 miles    
Events      
Averages and records for this station are not official NWS values.
T = Trace of Precipitation, MM = Missing Value Source: NWS Daily Summary

Daily Weather History Graph

Daily Weather History Graph

Search for Another Location

Airport or City:

Trip Planner

Search our weather history database for the weather conditions in past years. The results will help you decide how hot, cold, wet, or windy it might be!

Date:

Astronomy

Mar. 10, 2013 Rise Set
Actual Time 7:43 AM CDT 7:22 PM CDT
Civil Twilight 7:14 AM CDT 7:51 PM CDT
Nautical Twilight 6:40 AM CDT 8:25 PM CDT
Astronomical Twilight 6:06 AM CDT 8:59 PM CDT
Moon 6:45 AM CDT (3/10) 6:31 PM CDT (3/10)
Length of Visible Light 12h 37m
Length of Day
11h 39m
Waning Crescent, 2% of the Moon is Illuminated
Mar 10
Waning Crescent
Mar 11
New
Mar 19
First Quarter
Mar 27
Full
Apr 2
Last Quarter

Hourly Weather History & Observations

Time (CDT) Temp. Windchill Dew Point Humidity Pressure Visibility Wind Dir Wind Speed Gust Speed Precip Events Conditions
12:17 AM 27.3 °F 12.7 °F 25.3 °F 92% 29.83 in 5.0 mi NNW 24.2 mph 31.1 mph N/A   Overcast
12:38 AM 27.1 °F 13.4 °F 24.8 °F 91% 29.84 in 7.0 mi North 20.7 mph 31.1 mph N/A   Overcast
12:58 AM 27.1 °F 13.1 °F 24.8 °F 91% 29.85 in 7.0 mi North 21.9 mph 29.9 mph N/A   Overcast
1:17 AM 27.0 °F 12.5 °F 24.6 °F 91% 29.86 in 7.0 mi North 23.0 mph 32.2 mph N/A   Overcast
1:37 AM 26.6 °F 12.0 °F 24.4 °F 92% 29.85 in 7.0 mi North 23.0 mph 29.9 mph N/A   Overcast
1:58 AM 26.6 °F 12.0 °F 24.4 °F 92% 29.86 in 5.0 mi North 23.0 mph 29.9 mph N/A   Overcast
3:17 AM 26.1 °F 11.0 °F 23.9 °F 92% 29.84 in 5.0 mi North 24.2 mph 31.1 mph N/A   Overcast
3:37 AM 25.7 °F 11.5 °F 23.9 °F 93% 29.87 in 5.0 mi North 20.7 mph 29.9 mph N/A   Overcast
3:58 AM 25.5 °F 10.9 °F 23.5 °F 92% 29.87 in 5.0 mi North 21.9 mph 29.9 mph N/A   Overcast
4:17 AM 25.7 °F 11.2 °F 23.9 °F 93% 29.86 in 5.0 mi North 21.9 mph 32.2 mph N/A   Overcast
4:37 AM 25.3 °F 10.7 °F 23.5 °F 93% 29.86 in 5.0 mi NNW 21.9 mph 33.4 mph N/A   Overcast
4:58 AM 24.1 °F 7.4 °F 22.1 °F 92% 29.87 in 7.0 mi NNW 27.6 mph 34.5 mph N/A   Overcast
5:18 AM 23.9 °F 8.8 °F 21.9 °F 92% 29.90 in 7.0 mi NNW 21.9 mph 33.4 mph N/A   Overcast
5:38 AM 23.5 °F 7.0 °F 21.4 °F 91% 29.89 in 7.0 mi North 26.5 mph 33.4 mph N/A   Overcast
5:58 AM 23.5 °F 8.7 °F 21.6 °F 92% 29.92 in 7.0 mi NNW 20.7 mph 29.9 mph N/A   Overcast
6:17 AM 23.4 °F 7.4 °F 21.2 °F 91% 29.91 in 7.0 mi North 24.2 mph 31.1 mph N/A   Overcast
6:37 AM 22.8 °F 6.7 °F 21.0 °F 93% 29.91 in 7.0 mi NNW 24.2 mph 35.7 mph N/A   Overcast
7:17 AM 22.6 °F 6.8 °F 20.8 °F 93% 29.94 in 7.0 mi NNW 23.0 mph 28.8 mph N/A   Overcast
7:37 AM 22.5 °F 6.2 °F 20.3 °F 91% 29.95 in 7.0 mi NNW 24.2 mph 31.1 mph N/A   Overcast
7:58 AM 22.1 °F 4.8 °F 20.3 °F 93% 29.95 in 5.0 mi NNW 27.6 mph 35.7 mph N/A   Overcast
8:18 AM 22.1 °F 6.8 °F 20.3 °F 93% 29.99 in 4.0 mi NNW 20.7 mph 29.9 mph N/A   Overcast
8:37 AM 22.1 °F 5.4 °F 20.5 °F 93% 29.98 in 4.0 mi North 25.3 mph 31.1 mph N/A   Overcast
8:58 AM 22.3 °F 4.7 °F 20.5 °F 93% 29.97 in 4.0 mi North 28.8 mph 34.5 mph N/A   Overcast
9:18 AM 22.5 °F 5.2 °F 20.8 °F 93% 29.95 in 4.0 mi North 27.6 mph 33.4 mph N/A   Overcast
9:37 AM 22.5 °F 5.2 °F 20.8 °F 93% 29.97 in 4.0 mi North 27.6 mph 32.2 mph N/A   Overcast
9:57 AM 22.5 °F 6.5 °F 20.8 °F 93% 29.99 in 4.0 mi NNW 23.0 mph 27.6 mph N/A   Overcast
10:18 AM 22.5 °F 6.5 °F 20.7 °F 93% 29.99 in 5.0 mi NNW 23.0 mph 31.1 mph N/A   Overcast
10:38 AM 22.5 °F 5.5 °F 20.7 °F 93% 29.99 in 5.0 mi North 26.5 mph 32.2 mph N/A   Overcast
10:58 AM 22.3 °F 5.6 °F 20.5 °F 93% 29.98 in 7.0 mi North 25.3 mph 31.1 mph N/A   Overcast
11:17 AM 22.5 °F 5.9 °F 20.7 °F 93% 29.99 in 7.0 mi North 25.3 mph 33.4 mph N/A   Overcast
11:37 AM 22.3 °F 6.3 °F 20.3 °F 92% 29.98 in 7.0 mi NNW 23.0 mph 33.4 mph N/A   Overcast
11:57 AM 22.5 °F 6.2 °F 20.3 °F 91% 30.01 in 7.0 mi NNW 24.2 mph 31.1 mph N/A   Overcast
12:18 PM 22.5 °F 7.6 °F 20.3 °F 91% 30.00 in 7.0 mi North 19.6 mph 28.8 mph N/A   Overcast
12:37 PM 22.6 °F 6.4 °F 20.3 °F 91% 30.01 in 7.0 mi North 24.2 mph 28.8 mph N/A   Overcast
12:58 PM 22.8 °F 6.3 °F 20.7 °F 91% 29.99 in 7.0 mi North 25.3 mph 31.1 mph N/A   Overcast
1:18 PM 23.0 °F 6.3 °F 20.7 °F 91% 29.97 in 7.0 mi NNW 26.5 mph 34.5 mph N/A   Overcast
1:37 PM 23.0 °F 7.2 °F 20.8 °F 91% 30.00 in 7.0 mi NNW 23.0 mph 31.1 mph N/A   Overcast
1:58 PM 22.8 °F 7.4 °F 20.3 °F 90% 29.98 in 7.0 mi NNW 21.9 mph 33.4 mph N/A   Overcast
2:18 PM 23.0 °F 6.6 °F 20.7 °F 91% 29.98 in 7.0 mi NNW 25.3 mph 29.9 mph N/A   Overcast
2:38 PM 23.2 °F 7.8 °F 20.7 °F 90% 29.99 in 7.0 mi North 21.9 mph 27.6 mph N/A   Overcast
2:57 PM 23.0 °F 6.9 °F 20.5 °F 90% 29.97 in 10.0 mi NNW 24.2 mph 29.9 mph N/A   Overcast
3:17 PM 22.6 °F 6.1 °F 20.1 °F 90% 29.96 in 10.0 mi NNW 25.3 mph 32.2 mph N/A   Overcast
3:37 PM 22.8 °F 6.7 °F 20.3 °F 90% 29.95 in 10.0 mi North 24.2 mph 29.9 mph N/A   Overcast
3:58 PM 23.2 °F 7.1 °F 20.8 °F 91% 29.94 in 10.0 mi North 24.2 mph 31.1 mph N/A   Overcast
4:18 PM 23.4 °F 7.1 °F 20.8 °F 90% 29.93 in 10.0 mi North 25.3 mph 31.1 mph N/A   Overcast
4:38 PM 23.0 °F 8.3 °F 20.7 °F 91% 29.94 in 10.0 mi North 19.6 mph 29.9 mph N/A   Overcast
4:57 PM 23.0 °F 8.7 °F 20.5 °F 90% 29.96 in 10.0 mi NNW 18.4 mph 27.6 mph N/A   Overcast
5:18 PM 22.8 °F 8.5 °F 20.3 °F 90% 29.96 in 10.0 mi NNW 18.4 mph 27.6 mph N/A   Overcast
5:38 PM 22.8 °F 7.7 °F 20.3 °F 90% 29.96 in 10.0 mi NNW 20.7 mph 26.5 mph N/A   Overcast
5:57 PM 22.8 °F 7.0 °F 20.1 °F 89% 29.96 in 10.0 mi NNW 23.0 mph 32.2 mph N/A   Overcast
6:18 PM 22.1 °F 7.2 °F 19.8 °F 91% 29.96 in 10.0 mi NNW 19.6 mph 28.8 mph N/A   Overcast
6:38 PM 22.3 °F 7.4 °F 19.9 °F 91% 29.96 in 10.0 mi NNW 19.6 mph 29.9 mph N/A   Overcast
6:57 PM 22.1 °F 7.2 °F 19.4 °F 89% 29.96 in 10.0 mi North 19.6 mph 29.9 mph N/A   Overcast
7:18 PM 20.8 °F 3.7 °F 18.3 °F 90% 29.96 in 10.0 mi NNW 25.3 mph 32.2 mph N/A   Overcast
7:38 PM 20.3 °F 4.0 °F 18.3 °F 92% 29.97 in 10.0 mi North 21.9 mph 28.8 mph N/A   Overcast
7:58 PM 20.3 °F 4.0 °F 18.3 °F 92% 29.97 in 10.0 mi NNW 21.9 mph 29.9 mph N/A   Overcast
8:17 PM 20.3 °F 5.7 °F 18.1 °F 91% 29.98 in 10.0 mi NNW 17.3 mph 26.5 mph N/A   Overcast
8:37 PM 20.3 °F 5.2 °F 18.0 °F 91% 29.97 in 10.0 mi NNW 18.4 mph 23.0 mph N/A   Overcast
9:18 PM 20.1 °F 5.0 °F 17.6 °F 90% 29.98 in 10.0 mi NNW 18.4 mph 27.6 mph N/A   Overcast
9:37 PM 19.9 °F 4.3 °F 17.6 °F 91% 29.98 in 10.0 mi NNW 19.6 mph 28.8 mph N/A   Overcast
9:58 PM 18.9 °F 2.5 °F 16.5 °F 91% 29.98 in 10.0 mi NNW 20.7 mph 27.6 mph N/A   Overcast
10:18 PM 18.9 °F 2.9 °F 16.3 °F 90% 29.98 in 10.0 mi NNW 19.6 mph 26.5 mph N/A   Overcast
10:37 PM 18.5 °F 2.4 °F 15.8 °F 89% 29.98 in 10.0 mi NNW 19.6 mph 28.8 mph N/A   Overcast
10:57 PM 18.7 °F 3.1 °F 16.3 °F 91% 29.98 in 10.0 mi NNW 18.4 mph - N/A   Overcast
11:17 PM 18.1 °F 2.0 °F 15.6 °F 90% 29.97 in 10.0 mi NNW 19.6 mph - N/A   Overcast
11:38 PM 18.3 °F 2.6 °F 15.8 °F 90% 29.96 in 10.0 mi NNW 18.4 mph 25.3 mph N/A   Overcast
12:17 AM 18.1 °F 3.4 °F 15.3 °F 88% 29.95 in 10.0 mi NNW 16.1 mph 25.3 mph N/A   Overcast
12:37 AM 18.3 °F 3.1 °F 15.6 °F 89% 29.94 in 10.0 mi NNW 17.3 mph 21.9 mph N/A   Overcast
12:58 AM 18.1 °F 2.0 °F 15.3 °F 88% 29.93 in 10.0 mi NNW 19.6 mph - N/A   Overcast